Location: Christian Reformed Church
(43.0975°N, 93.8113°W)
Time: 12:02:58
(UTC+00:00)

Okean 1-7 Rocket - Pass Details

Date: 19 March 2026
Orbit: 609 x 643 km, 82.5° (Epoch: 14 April)

Event Time Altitude Azimuth Distance (km) Brightness Sun altitude
Rises 01:12:58 0° 219° (SW) 2,941 7.5 -9.5°
Reaches altitude 10° 01:15:34 10° 233° (SW) 2,035 6.9 -10.0°
Maximum altitude 01:19:14 24° 287° (WNW) 1,327 6.3 -10.6°
Drops below altitude 10° 01:22:56 10° 342° (NNW) 2,040 6.6 -11.3°
Sets 01:25:33 0° 356° (N) 2,950 7.2 -11.8°
